Volver al catálogo

STARLINK-37011

ActivoComunicacionesSSO
NORAD 68217·PAYLOAD·🇺🇸 United States

Lanzado Mar 17, 2026 desde Vandenberg Space Force Base

Loading…

Próximos Pases (próximas 24 horas)

TLE

ActualizadoSource: CelesTrak SupGP

Época: Sep 15, 2026, 04:12 UTC

1 68217C 26053L   26258.17548611 -.00003828  00000+0 -11880-3 0  2587
2 68217  97.2845 132.0127 0001919  96.5970   2.2167 15.33449163    11

Sigue STARLINK-37011 en tiempo real con AllMySat

Download on the App Store